Arctic Village, AK

10:23 PM AKDT on October 18, 2017 (GMT -0800)
Arctic Village

Weather History for PARC - August, 2013

Change the Weather History Date:

Sunday, August 25, 2013

  Actual Average Record
Temperature  
Mean Temperature 38 °F -  
Max Temperature 46 °F 56 °F 64 °F (2007)
Min Temperature 30 °F 32 °F 25 °F (1991)
Degree Days  
Heating Degree Days 27    
Moisture  
Dew Point 27 °F    
Average Humidity 66    
Maximum Humidity 86    
Minimum Humidity 49    
Precipitation  
Precipitation 0.00 in - - ()
Sea Level Pressure  
Sea Level Pressure 29.90 in    
Wind  
Wind Speed 3 mph (SSE)    
Max Wind Speed 14 mph    
Max Gust Speed 16 mph    
Visibility 10 miles    
Events      
Averages and records for this station are not official NWS values.
T = Trace of Precipitation, MM = Missing Value Source: NWS Daily Summary

Daily Weather History Graph

Daily Weather History Graph

Search for Another Location

Airport or City:

Trip Planner

Search our weather history database for the weather conditions in past years. The results will help you decide how hot, cold, wet, or windy it might be!

Date:

Astronomy

Aug. 25, 2013 Rise Set
Actual Time 5:43 AM AKDT 9:42 PM AKDT
Civil Twilight 4:29 AM AKDT 10:54 PM AKDT
Nautical Twilight 2:16 AM AKDT 1:11 AM AKDT
Astronomical Twilight Sun does not rise Sun does not rise
Moon 9:09 PM AKDT (8/25) 1:58 PM AKDT (8/25)
Length of Visible Light 18h 25m
Length of Day
15h 59m
Waning Gibbous, 74% of the Moon is Illuminated
Aug 25
Waning Gibbous
Aug 28
Last Quarter
Sep 5
New
Sep 12
First Quarter
Sep 19
Full

Hourly Weather History & Observations

Time (AKDT) Temp. Windchill Dew Point Humidity Pressure Visibility Wind Dir Wind Speed Gust Speed Precip Events Conditions
12:16 AM 37.4 °F - 26.6 °F 65% 29.94 in 10.0 mi Calm Calm - N/A   Mostly Cloudy
12:36 AM 35.6 °F 31.7 °F 26.6 °F 70% 29.94 in 10.0 mi South 4.6 mph - N/A   Mostly Cloudy
12:56 AM 35.6 °F 31.7 °F 28.4 °F 75% 29.94 in 10.0 mi South 4.6 mph - N/A   Clear
1:16 AM 35.6 °F 30.7 °F 28.4 °F 75% 29.94 in 10.0 mi South 5.8 mph - N/A   Clear
1:36 AM 33.8 °F 30.8 °F 26.6 °F 75% 29.94 in 10.0 mi South 3.5 mph - N/A   Clear
1:56 AM 33.8 °F 29.6 °F 26.6 °F 75% 29.94 in 10.0 mi South 4.6 mph - N/A   Clear
2:16 AM 33.8 °F 28.6 °F 26.6 °F 75% 29.94 in 10.0 mi South 5.8 mph - N/A   Clear
2:36 AM 33.8 °F 29.6 °F 26.6 °F 75% 29.94 in 10.0 mi South 4.6 mph - N/A   Clear
2:56 AM 33.8 °F 29.6 °F 26.6 °F 75% 29.94 in 10.0 mi South 4.6 mph - N/A   Partly Cloudy
3:16 AM 32.0 °F 26.4 °F 26.6 °F 80% 29.94 in 10.0 mi South 5.8 mph - N/A   Partly Cloudy
3:36 AM 32.0 °F 26.4 °F 24.8 °F 75% 29.94 in 10.0 mi South 5.8 mph - N/A   Partly Cloudy
3:56 AM 32.0 °F 27.5 °F 24.8 °F 75% 29.94 in 10.0 mi South 4.6 mph - N/A   Scattered Clouds
4:16 AM 32.0 °F 27.5 °F 26.6 °F 80% 29.94 in 10.0 mi South 4.6 mph - N/A   Partly Cloudy
4:36 AM 32.0 °F 28.7 °F 26.6 °F 80% 29.94 in 10.0 mi South 3.5 mph - N/A   Clear
4:56 AM 32.0 °F 26.4 °F 26.6 °F 80% 29.94 in 10.0 mi South 5.8 mph - N/A   Clear
5:16 AM 30.2 °F 26.7 °F 24.8 °F 80% 29.94 in 10.0 mi South 3.5 mph - N/A   Partly Cloudy
5:36 AM 30.2 °F - 24.8 °F 80% 29.93 in 10.0 mi Calm Calm - N/A   Partly Cloudy
5:56 AM 30.2 °F - 24.8 °F 80% 29.93 in 10.0 mi Calm Calm - N/A   Clear
6:16 AM 30.2 °F 25.4 °F 24.8 °F 80% 29.93 in 10.0 mi South 4.6 mph - N/A   Scattered Clouds
6:36 AM 30.2 °F 26.7 °F 24.8 °F 80% 29.94 in 10.0 mi South 3.5 mph - N/A   Overcast
6:56 AM 30.2 °F - 26.6 °F 86% 29.93 in 10.0 mi Calm Calm - N/A   Overcast
7:16 AM 30.2 °F - 26.6 °F 86% 29.93 in 10.0 mi Calm Calm - N/A   Overcast
7:36 AM 30.2 °F - 26.6 °F 86% 29.93 in 10.0 mi Calm Calm - N/A   Mostly Cloudy
7:56 AM 30.2 °F - 26.6 °F 86% 29.93 in 10.0 mi Calm Calm - N/A   Overcast
8:16 AM 32.0 °F - 26.6 °F 80% 29.93 in 10.0 mi Calm Calm - N/A   Mostly Cloudy
8:36 AM 33.8 °F - 26.6 °F 75% 29.93 in 10.0 mi Calm Calm - N/A   Partly Cloudy
8:56 AM 33.8 °F - 26.6 °F 75% 29.92 in 10.0 mi Calm Calm - N/A   Partly Cloudy
9:16 AM 35.6 °F - 26.6 °F 70% 29.92 in 10.0 mi Calm Calm - N/A   Clear
9:36 AM 35.6 °F - 26.6 °F 70% 29.92 in 10.0 mi Calm Calm - N/A   Clear
9:56 AM 37.4 °F 34.9 °F 26.6 °F 65% 29.92 in 10.0 mi SSW 3.5 mph - N/A   Clear
10:16 AM 37.4 °F 33.8 °F 24.8 °F 60% 29.91 in 10.0 mi South 4.6 mph - N/A   Clear
10:36 AM 37.4 °F 34.9 °F 26.6 °F 65% 29.91 in 10.0 mi South 3.5 mph - N/A   Mostly Cloudy
10:56 AM 37.4 °F 33.8 °F 26.6 °F 65% 29.92 in 10.0 mi South 4.6 mph - N/A   Overcast
11:16 AM 37.4 °F 34.9 °F 26.6 °F 65% 29.91 in 10.0 mi SW 3.5 mph - N/A   Overcast
11:36 AM 39.2 °F 35.9 °F 26.6 °F 61% 29.91 in 10.0 mi WSW 4.6 mph - N/A   Overcast
11:56 AM 39.2 °F 37.0 °F 26.6 °F 61% 29.90 in 10.0 mi South 3.5 mph - N/A   Overcast
12:16 PM 39.2 °F - 26.6 °F 61% 29.90 in 10.0 mi Calm Calm - N/A   Overcast
12:36 PM 39.2 °F - 26.6 °F 61% 29.90 in 10.0 mi Calm Calm - N/A   Overcast
12:56 PM 39.2 °F - 26.6 °F 61% 29.90 in 10.0 mi Calm Calm - N/A   Overcast
1:16 PM 41.0 °F 38.0 °F 26.6 °F 57% 29.90 in 10.0 mi South 4.6 mph - N/A   Overcast
1:36 PM 41.0 °F - 26.6 °F 57% 29.89 in 10.0 mi Calm Calm - N/A   Overcast
1:56 PM 42.8 °F 41.1 °F 28.4 °F 57% 29.89 in 10.0 mi ESE 3.5 mph - N/A   Scattered Clouds
2:16 PM 44.6 °F 42.2 °F 26.6 °F 49% 29.89 in 10.0 mi SE 4.6 mph - N/A   Partly Cloudy
2:36 PM 44.6 °F 42.2 °F 28.4 °F 53% 29.89 in 10.0 mi SW 4.6 mph - N/A   Clear
2:56 PM 42.8 °F 41.1 °F 26.6 °F 53% 29.88 in 10.0 mi South 3.5 mph - N/A   Clear
3:16 PM 44.6 °F 43.1 °F 28.4 °F 53% 29.88 in 10.0 mi ESE 3.5 mph - N/A   Clear
3:36 PM 44.6 °F - 28.4 °F 53% 29.88 in 10.0 mi Calm Calm - N/A   Clear
3:56 PM 46.4 °F 45.2 °F 28.4 °F 50% 29.88 in 10.0 mi SSE 3.5 mph - N/A   Clear
4:16 PM 46.4 °F - 28.4 °F 50% 29.87 in 10.0 mi Calm Calm - N/A   Clear
4:36 PM 46.4 °F 44.3 °F 28.4 °F 50% 29.86 in 10.0 mi East 4.6 mph - N/A   Clear
4:56 PM 46.4 °F 44.3 °F 28.4 °F 50% 29.86 in 10.0 mi ESE 4.6 mph - N/A   Clear
5:16 PM 46.4 °F - 28.4 °F 50% 29.86 in 10.0 mi Calm Calm - N/A   Clear
5:36 PM 46.4 °F - 28.4 °F 50% 29.86 in 10.0 mi Calm Calm - N/A   Scattered Clouds
5:56 PM 46.4 °F - 28.4 °F 50% 29.85 in 10.0 mi Calm Calm - N/A   Partly Cloudy
6:16 PM 46.4 °F 45.2 °F 28.4 °F 50% 29.85 in 10.0 mi ENE 3.5 mph - N/A   Partly Cloudy
6:36 PM 44.6 °F 39.7 °F 28.4 °F 53% 29.85 in 10.0 mi SE 9.2 mph - N/A   Scattered Clouds
6:56 PM 44.6 °F 38.4 °F 30.2 °F 57% 29.85 in 10.0 mi SE 12.7 mph - N/A   Mostly Cloudy
7:16 PM 44.6 °F 38.8 °F 28.4 °F 53% 29.85 in 10.0 mi SE 11.5 mph - N/A   Overcast
7:36 PM 44.6 °F 38.4 °F 30.2 °F 57% 29.85 in 10.0 mi SE 12.7 mph - N/A   Overcast
7:56 PM 44.6 °F 38.4 °F 28.4 °F 53% 29.85 in 10.0 mi SE 12.7 mph 16.1 mph N/A   Overcast
8:16 PM 42.8 °F 35.8 °F 30.2 °F 61% 29.86 in 10.0 mi SE 13.8 mph - N/A   Scattered Clouds
8:36 PM 42.8 °F 38.0 °F 28.4 °F 57% 29.86 in 10.0 mi SE 8.1 mph - N/A   Partly Cloudy
8:56 PM 41.0 °F - 28.4 °F 61% 29.88 in 10.0 mi Calm Calm - N/A   Scattered Clouds
9:16 PM 39.2 °F 33.0 °F 26.6 °F 61% 29.88 in 10.0 mi ESE 9.2 mph - N/A   Partly Cloudy
9:36 PM 39.2 °F 35.9 °F 26.6 °F 61% 29.89 in 10.0 mi East 4.6 mph - N/A   Scattered Clouds
9:56 PM 39.2 °F 37.0 °F 26.6 °F 61% 29.90 in 10.0 mi SSE 3.5 mph - N/A   Mostly Cloudy
10:16 PM 39.2 °F 37.0 °F 26.6 °F 61% 29.90 in 10.0 mi ENE 3.5 mph - N/A   Overcast
10:36 PM 37.4 °F 32.1 °F 26.6 °F 65% 29.90 in 10.0 mi East 6.9 mph - N/A   Overcast
10:56 PM 37.4 °F 30.8 °F 26.6 °F 65% 29.90 in 10.0 mi East 9.2 mph - N/A   Scattered Clouds
11:16 PM 37.4 °F 33.8 °F 26.6 °F 65% 29.91 in 10.0 mi ESE 4.6 mph - N/A   Clear
11:36 PM 35.6 °F - 28.4 °F 75% 29.91 in 10.0 mi Calm Calm - N/A   Scattered Clouds
11:56 PM 35.6 °F - 26.6 °F 70% 29.92 in 10.0 mi Calm Calm - N/A   Scattered Clouds